EW9544 Weather Reports


Display with metric or nautical units.
time (UTC)temp
F
wind
direction
speed
MPH
gust
MPH
rain 1hr
in
rain 24hr
in
rain mn
in
humidity
%
barometer
mb
20260509070049 52 236 0.0 2.0 0.00 0.00 0.00 85 1011.2
20260509065046 52 235 0.0 0.0 0.00 0.00 0.00 84 1011.1
20260509064546 52 236 0.0 0.0 0.00 0.00 0.00 84 1011.1
20260509064046 52 235 0.0 1.0 0.00 0.00 0.00 84 1011.2
20260509062546 52 337 0.0 0.0 0.00 0.00 0.00 82 1011.2
20260509062047 53 337 0.0 1.0 0.00 0.00 0.00 82 1011.3
20260509061546 53 337 0.0 1.0 0.00 0.00 0.00 81 1011.4
20260509060543 53 332 0.0 0.0 0.00 0.00 0.00 81 1011.6
20260509060044 53 332 0.0 0.0 0.00 0.00 0.00 81 1011.6
20260509055544 53 332 0.0 0.0 0.00 0.00 0.00 81 1011.4
20260509055044 53 333 0.0 0.0 0.00 0.00 0.00 80 1011.3
20260509054545 53 304 0.0 0.0 0.00 0.00 0.00 80 1011.4
20260509053545 53 303 0.0 1.0 0.00 0.00 0.00 81 1011.6
20260509053043 52 303 0.0 0.0 0.00 0.00 0.00 81 1011.7
20260509052044 52 304 0.0 0.0 0.00 0.00 0.00 81 1011.5
20260509051543 52 303 0.0 0.0 0.00 0.00 0.00 80 1011.6
20260509051043 52 303 0.0 0.0 0.00 0.00 0.00 80 1011.6
20260509050542 53 303 0.0 0.0 0.00 0.00 0.00 79 1011.6
20260509050043 53 303 0.0 0.0 0.00 0.00 0.00 79 1011.6
20260509045542 53 303 0.0 0.0 0.00 0.00 0.00 79 1011.6
20260509045042 53 303 0.0 0.0 0.00 0.00 0.00 79 1011.4
20260509044539 53 303 0.0 0.0 0.00 0.00 0.00 79 1011.5
20260509044039 53 303 0.0 0.0 0.00 0.00 0.00 79 1011.5
20260509043538 53 303 0.0 0.0 0.00 0.00 0.00 79 1011.6
20260509042537 54 303 0.0 0.0 0.00 0.00 0.00 78 1011.6
20260509042038 54 303 0.0 0.0 0.00 0.00 0.00 78 1011.6
20260509041536 54 303 0.0 0.0 0.00 0.00 0.00 77 1011.6
20260509040036 55 303 0.0 1.0 0.00 0.00 0.00 77 1011.7
20260509035536 54 304 0.0 1.0 0.00 0.00 0.00 77 1011.8
20260509035038 54 296 0.0 1.0 0.00 0.00 0.00 77 1011.8
20260509034538 54 296 0.0 1.0 0.00 0.00 0.00 78 1011.8
20260509034036 54 295 0.0 1.0 0.00 0.00 0.00 79 1011.8
20260509033536 54 292 0.0 1.0 0.00 0.00 0.00 79 1011.7
20260509033037 54 293 0.0 0.0 0.00 0.00 0.00 80 1011.8
20260509032036 54 293 0.0 1.0 0.00 0.00 0.00 80 1011.9
20260509031538 54 291 0.0 1.0 0.00 0.00 0.00 80 1011.8
20260509031036 54 289 0.0 3.0 0.00 0.00 0.00 80 1011.8
20260509030036 54 264 1.0 6.0 0.00 0.00 0.00 78 1011.8
20260509025537 54 270 0.0 6.0 0.00 0.00 0.00 78 1011.8
20260509025037 54 268 1.0 4.0 0.00 0.00 0.00 79 1011.7
20260509024537 54 268 2.0 4.0 0.00 0.00 0.00 79 1011.6
20260509024038 54 247 2.0 4.0 0.00 0.00 0.00 80 1011.6
20260509023036 54 262 2.0 6.0 0.00 0.00 0.00 79 1011.4
20260509022537 54 251 3.0 7.0 0.00 0.00 0.00 78 1011.5
20260509021537 54 258 3.0 9.0 0.00 0.00 0.00 79 1011.5
20260509021038 55 250 3.0 9.0 0.00 0.00 0.00 78 1011.5
20260509020037 55 265 1.0 6.0 0.00 0.00 0.00 78 1011.4
20260509015537 55 277 0.0 2.0 0.00 0.00 0.00 77 1011.4
20260509015036 55 281 0.0 2.0 0.00 0.00 0.00 76 1011.3
20260509014536 55 278 0.0 1.0 0.00 0.00 0.00 73 1011.2
20260509014035 55 324 0.0 1.0 0.00 0.00 0.00 72 1011.0
20260509013535 55 345 0.0 1.0 0.00 0.00 0.00 71 1011.1
20260509013034 55 354 0.0 0.0 0.00 0.00 0.00 69 1011.0
20260509012535 55 354 0.0 0.0 0.00 0.00 0.00 70 1010.9
20260509012034 55 354 0.0 0.0 0.00 0.00 0.00 70 1010.9
20260509011534 55 354 0.0 0.0 0.00 0.00 0.00 67 1010.8
20260509010036 55 354 0.0 0.0 0.00 0.00 0.00 64 1010.7
20260509005534 55 354 0.0 0.0 0.00 0.00 0.00 63 1010.7
20260509005033 55 354 0.0 0.0 0.00 0.00 0.00 63 1010.5
20260509004534 56 354 0.0 0.0 0.00 0.00 0.00 63 1010.4
20260509004032 56 354 0.0 0.0 0.00 0.00 0.00 62 1010.2
20260509003033 56 354 0.0 0.0 0.00 0.00 0.00 61 1010.2
20260509002532 57 354 0.0 0.0 0.00 0.00 0.00 60 1010.1
20260509002032 57 354 0.0 1.0 0.00 0.00 0.00 60 1010.1
20260509001533 57 354 0.0 1.0 0.00 0.00 0.00 59 1010.2
20260509001032 57 354 0.0 1.0 0.00 0.00 0.00 59 1010.3
20260509000532 57 354 0.0 1.0 0.00 0.00 0.00 58 1010.2
20260509000031 58 354 0.0 1.0 0.00 0.00 0.00 58 1010.1
20260508235531 58 354 0.0 1.0 0.00 0.00 0.00 57 1010.1
20260508235031 58 349 0.0 1.0 0.00 0.00 0.00 56 1010.1
20260508234030 59 4 0.0 2.0 0.00 0.00 0.00 56 1009.9
20260508233530 59 4 0.0 2.0 0.00 0.00 0.00 56 1010.0
20260508233031 59 22 0.0 2.0 0.00 0.00 0.00 56 1010.0
20260508232532 59 29 0.0 2.0 0.00 0.00 0.00 56 1009.9
20260508232030 59 8 0.0 1.0 0.00 0.00 0.00 55 1009.8
20260508231029 59 12 0.0 2.0 0.00 0.00 0.00 55 1009.7
20260508230028 59 16 0.0 2.0 0.00 0.00 0.00 54 1009.6
20260508225028 59 359 0.0 4.0 0.00 0.00 0.00 54 1009.6
20260508224528 59 21 0.0 3.0 0.00 0.00 0.00 54 1009.6
20260508224029 59 34 0.0 2.0 0.00 0.00 0.00 54 1009.5
20260508223528 60 9 0.0 3.0 0.00 0.00 0.00 54 1009.5
20260508223028 60 4 0.0 3.0 0.00 0.00 0.00 53 1009.5
20260508222527 60 12 0.0 3.0 0.00 0.00 0.00 54 1009.5
20260508222027 60 359 1.0 3.0 0.00 0.00 0.00 55 1009.4
20260508221527 59 22 1.0 3.0 0.00 0.00 0.00 56 1009.5
20260508221027 59 18 0.0 3.0 0.00 0.00 0.00 56 1009.4
20260508220527 59 34 1.0 5.0 0.00 0.00 0.00 56 1009.5
20260508220027 59 4 1.0 5.0 0.00 0.00 0.00 55 1009.5
20260508215526 60 359 0.0 3.0 0.00 0.00 0.00 56 1009.5
20260508215026 59 4 0.0 1.0 0.00 0.00 0.00 57 1009.6
20260508214026 59 10 1.0 8.0 0.00 0.00 0.00 58 1009.8
20260508212525 59 8 0.0 4.0 0.00 0.00 0.00 58 1010.0
20260508212024 58 354 0.0 4.0 0.00 0.00 0.00 57 1010.1
20260508211524 58 35 0.0 5.0 0.00 0.00 0.00 57 1009.9
20260508210523 58 21 0.0 5.0 0.00 0.00 0.00 55 1009.9
20260508210024 59 314 0.0 2.0 0.00 0.00 0.00 55 1010.0
20260508205525 59 27 0.0 2.0 0.00 0.00 0.00 55 1009.9
20260508205025 59 23 1.0 8.0 0.00 0.00 0.00 55 1009.8
20260508204525 59 27 1.0 8.0 0.00 0.00 0.00 55 1009.7
20260508204022 58 345 1.0 4.0 0.00 0.00 0.00 56 1009.7
20260508203523 58 343 1.0 6.0 0.00 0.00 0.00 56 1009.7
20260508202522 59 29 1.0 5.0 0.00 0.00 0.00 56 1009.7
20260508202022 59 354 0.0 5.0 0.00 0.00 0.00 57 1009.8
20260508201023 60 354 0.0 7.0 0.00 0.00 0.00 56 1009.5
20260508200521 60 14 0.0 1.0 0.00 0.00 0.00 58 1009.6
20260508200021 59 57 0.0 9.0 0.00 0.00 0.00 59 1009.7
20260508195021 58 44 1.0 6.0 0.00 0.00 0.00 61 1009.9
20260508194521 58 31 1.0 6.0 0.00 0.00 0.00 60 1010.0
20260508194020 57 50 1.0 4.0 0.00 0.00 0.00 61 1010.1
20260508193019 56 344 1.0 6.0 0.00 0.00 0.00 62 1010.0
20260508192520 56 10 1.0 3.0 0.00 0.00 0.00 63 1010.1
20260508192020 57 72 1.0 8.0 0.00 0.00 0.00 60 1010.2
20260508191520 58 354 2.0 9.0 0.00 0.00 0.00 55 1010.3
20260508191021 59 37 1.0 9.0 0.00 0.00 0.00 52 1010.0
20260508190522 59 37 1.0 5.0 0.00 0.00 0.00 51 1009.8
20260508190020 59 37 1.0 3.0 0.00 0.00 0.00 51 1009.8
20260508185020 60 39 0.0 3.0 0.00 0.00 0.00 51 1009.7
20260508184520 60 30 1.0 9.0 0.00 0.00 0.00 52 1009.7
20260508184021 60 30 1.0 9.0 0.00 0.00 0.00 51 1009.7
20260508183520 60 50 0.0 4.0 0.00 0.00 0.00 51 1009.6
20260508182519 59 349 1.0 11.0 0.00 0.00 0.00 51 1009.8
20260508182020 60 18 2.0 15.0 0.00 0.00 0.00 49 1009.8
20260508181520 60 354 2.0 15.0 0.00 0.00 0.00 48 1009.5
20260508181020 60 359 1.0 15.0 0.00 0.00 0.00 49 1009.6
20260508180521 60 24 1.0 5.0 0.00 0.00 0.00 47 1009.5
20260508175520 61 309 1.0 10.0 0.00 0.00 0.00 46 1009.4
20260508175019 62 346 1.0 10.0 0.00 0.00 0.00 47 1009.4
20260508174519 61 359 1.0 13.0 0.00 0.00 0.00 47 1009.5
20260508174021 61 335 2.0 15.0 0.00 0.00 0.00 46 1009.5
20260508173519 60 26 2.0 15.0 0.00 0.00 0.00 46 1009.4
20260508173021 60 290 2.0 17.0 0.00 0.00 0.00 47 1009.6
20260508172020 61 349 1.0 9.0 0.00 0.00 0.00 46 1009.5
20260508171518 61 350 1.0 8.0 0.00 0.00 0.00 46 1009.5
20260508170519 60 4 1.0 16.0 0.00 0.00 0.00 46 1009.5
20260508170017 60 354 1.0 16.0 0.00 0.00 0.00 47 1009.6
20260508165017 61 316 1.0 12.0 0.00 0.00 0.00 46 1009.7
20260508164018 60 13 1.0 14.0 0.00 0.00 0.00 47 1009.8
20260508163517 60 335 1.0 9.0 0.00 0.00 0.00 47 1009.8
20260508163019 61 23 1.0 5.0 0.00 0.00 0.00 46 1009.8
20260508162517 61 41 1.0 5.0 0.00 0.00 0.00 46 1009.8
20260508162018 60 29 1.0 10.0 0.00 0.00 0.00 48 1010.0
20260508161517 60 38 1.0 10.0 0.00 0.00 0.00 47 1010.1
20260508160518 58 276 1.0 18.0 0.00 0.00 0.00 49 1010.2
20260508160015 58 345 1.0 6.0 0.00 0.00 0.00 51 1010.2
20260508154515 59 33 0.0 7.0 0.00 0.00 0.00 53 1010.3
20260508154016 60 87 0.0 2.0 0.00 0.00 0.00 50 1010.1
20260508153516 60 264 0.0 4.0 0.00 0.00 0.00 46 1010.2
20260508153016 61 21 0.0 4.0 0.00 0.00 0.00 46 1010.2
20260508152516 60 343 0.0 6.0 0.00 0.00 0.00 46 1010.3
20260508151516 60 296 0.0 5.0 0.00 0.00 0.00 46 1010.3
20260508151013 60 19 0.0 2.0 0.00 0.00 0.00 47 1010.3
20260508150515 60 110 0.0 2.0 0.00 0.00 0.00 45 1010.3
20260508150013 60 359 0.0 2.0 0.00 0.00 0.00 45 1010.5
20260508145514 60 35 0.0 1.0 0.00 0.00 0.00 46 1010.5
20260508144514 59 43 0.0 3.0 0.00 0.00 0.00 49 1010.7
20260508144014 59 354 0.0 3.0 0.00 0.00 0.00 49 1010.7
20260508143513 59 30 0.0 2.0 0.00 0.00 0.00 49 1010.8
20260508143014 59 33 0.0 5.0 0.00 0.00 0.00 50 1010.7
20260508142513 58 10 0.0 5.0 0.00 0.00 0.00 50 1010.7
20260508142010 59 22 0.0 2.0 0.00 0.00 0.00 53 1010.6
20260508141512 58 14 0.0 2.0 0.00 0.00 0.00 54 1010.6
20260508141012 58 359 0.0 2.0 0.00 0.00 0.00 55 1010.6
20260508140511 58 4 0.0 2.0 0.00 0.00 0.00 55 1010.6
20260508140011 57 25 0.0 3.0 0.00 0.00 0.00 57 1010.6
20260508135511 57 359 0.0 3.0 0.00 0.00 0.00 55 1010.6
20260508135012 57 15 0.0 3.0 0.00 0.00 0.00 57 1010.5
20260508134512 56 31 0.0 3.0 0.00 0.00 0.00 59 1010.5
20260508134012 56 28 0.0 3.0 0.00 0.00 0.00 59 1010.6
20260508133511 56 88 0.0 2.0 0.00 0.00 0.00 63 1010.7
20260508133008 55 41 0.0 2.0 0.00 0.00 0.00 63 1010.7
20260508132508 55 20 0.0 3.0 0.00 0.00 0.00 65 1010.7
20260508132010 54 48 0.0 3.0 0.00 0.00 0.00 66 1010.7
20260508131508 54 65 0.0 2.0 0.00 0.00 0.00 65 1010.6
20260508130009 54 20 0.0 3.0 0.00 0.00 0.00 67 1010.8
20260508124007 53 57 0.0 2.0 0.00 0.00 0.00 70 1011.1
20260508123507 53 19 1.0 4.0 0.00 0.00 0.00 69 1011.1
20260508123007 53 354 1.0 4.0 0.00 0.00 0.00 70 1011.2
20260508122506 52 11 1.0 5.0 0.00 0.00 0.00 70 1011.2
20260508121507 53 4 0.0 1.0 0.00 0.00 0.00 73 1011.1
20260508121008 52 10 0.0 1.0 0.00 0.00 0.00 75 1011.0
20260508120008 51 339 0.0 1.0 0.00 0.00 0.00 77 1010.9
20260508115006 51 27 0.0 1.0 0.00 0.00 0.00 78 1010.8
20260508114505 50 29 0.0 1.0 0.00 0.00 0.00 79 1010.7
20260508114004 50 16 0.0 1.0 0.00 0.00 0.00 80 1010.7
20260508113505 50 9 0.0 1.0 0.00 0.00 0.00 81 1010.7
20260508113005 50 33 0.0 1.0 0.00 0.00 0.00 82 1010.6
20260508112505 49 18 0.0 1.0 0.00 0.00 0.00 83 1010.6
20260508112006 49 4 0.0 0.0 0.00 0.00 0.00 84 1010.7
20260508111505 49 4 0.0 0.0 0.00 0.00 0.00 84 1010.6
20260508110004 48 4 0.0 0.0 0.00 0.00 0.00 86 1010.5
20260508105003 47 4 0.0 0.0 0.00 0.00 0.00 86 1010.4
20260508104004 47 4 0.0 0.0 0.00 0.00 0.00 86 1010.3
20260508103004 46 4 0.0 0.0 0.00 0.00 0.00 86 1010.4
20260508102502 46 4 0.0 0.0 0.00 0.00 0.00 86 1010.3
20260508102004 46 4 0.0 0.0 0.00 0.00 0.00 85 1010.3
20260508101503 46 4 0.0 0.0 0.00 0.00 0.00 85 1010.2
20260508100501 46 4 0.0 0.0 0.00 0.00 0.00 84 1010.1
20260508095500 47 4 0.0 1.0 0.00 0.00 0.00 84 1010.1
20260508093958 47 359 0.0 1.0 0.00 0.00 0.00 84 1010.0
20260508093456 47 354 0.0 1.0 0.00 0.00 0.00 84 1009.9
20260508092957 47 9 0.0 1.0 0.00 0.00 0.00 84 1009.9
20260508092458 47 16 0.0 1.0 0.00 0.00 0.00 84 1010.0
20260508091957 47 33 0.0 1.0 0.00 0.00 0.00 84 1010.0
20260508091458 47 33 0.0 1.0 0.00 0.00 0.00 84 1009.9
20260508090956 46 33 0.0 1.0 0.00 0.00 0.00 84 1009.7
20260508090456 46 38 0.0 1.0 0.00 0.00 0.00 84 1009.7
20260508085956 47 39 0.0 1.0 0.00 0.00 0.00 84 1009.7
20260508085456 47 38 0.0 1.0 0.00 0.00 0.00 84 1009.7
20260508084957 47 44 0.0 1.0 0.00 0.00 0.00 84 1009.6
20260508084458 47 44 1.0 1.0 0.00 0.00 0.00 84 1009.7
20260508083957 46 41 1.0 1.0 0.00 0.00 0.00 84 1009.5
20260508083458 46 44 0.0 1.0 0.00 0.00 0.00 84 1009.5
20260508082958 46 66 0.0 1.0 0.00 0.00 0.00 84 1009.5
20260508082458 46 42 0.0 1.0 0.00 0.00 0.00 84 1009.5
20260508080957 46 40 0.0 1.0 0.00 0.00 0.00 84 1009.5
20260508080458 46 38 0.0 1.0 0.00 0.00 0.00 84 1009.5
20260508075956 46 37 0.0 1.0 0.00 0.00 0.00 84 1009.5
20260508074954 46 48 1.0 1.0 0.00 0.00 0.00 83 1009.7
20260508074455 47 32 1.0 2.0 0.00 0.00 0.00 83 1009.7
20260508073955 47 48 1.0 2.0 0.00 0.00 0.00 83 1009.7
20260508073455 47 52 1.0 2.0 0.00 0.00 0.00 83 1009.9
20260508072955 46 41 1.0 2.0 0.00 0.00 0.00 82 1009.8
20260508072455 46 40 1.0 2.0 0.00 0.00 0.00 82 1009.8
20260508071955 46 44 0.0 1.0 0.00 0.00 0.00 82 1009.9
20260508070955 47 50 1.0 2.0 0.00 0.00 0.00 81 1010.0